Theta_e
355 359 365 365 364 363 364 363 364 364 362 360 361 363 362 361 362 362 362 361 362 362 361 362 362 362 361 362 361 360 360 360 361 360 361 363 363 363 362 363 362 357 359
357 357 365 366 365 364 363 363 362 362 361 361 363 362 362 361 361 361 361 361 360 361 362 361 362 363 362 361 360 361 359 358 358 359 361 364 364 362 361 361 359 361 363
355 359 361 366 366 364 363 363 363 362 362 360 362 363 362 360 360 361 361 361 361 360 359 358 357 357 359 360 361 359 361 360 360 362 361 357 358 362 360 360 360 363 362
354 356 357 367 367 364 364 363 364 364 363 363 362 362 361 361 361 361 360 359 358 356 354 353 351 351 351 353 354 355 356 358 360 361 360 358 356 362 361 360 362 362 362
353 355 362 368 366 363 364 364 364 363 363 362 362 361 360 359 357 355 354 353 352 351 351 351 352 354 356 354 352 351 352 354 358 359 362 360 358 360 362 360 361 362 362
353 358 364 367 363 363 364 363 364 361 360 359 358 358 357 356 356 355 354 354 353 354 356 358 358 358 358 358 359 359 356 355 356 355 359 361 356 363 363 362 361 362 362
352 358 361 367 366 363 364 363 362 362 362 361 360 358 357 355 354 355 356 357 359 360 361 362 361 361 361 361 361 361 360 360 355 352 360 357 358 364 361 363 363 362 364
351 352 357 364 364 363 363 363 362 361 360 360 358 357 357 358 358 358 360 361 361 362 363 363 363 363 363 363 363 363 363 363 360 354 357 357 360 363 361 362 363 363 363
351 349 351 355 361 362 361 362 362 361 360 359 358 358 359 360 361 363 364 364 364 364 365 366 366 366 366 366 365 365 365 365 361 359 353 358 361 362 359 360 363 362 363
351 353 351 352 354 354 356 363 361 360 359 359 359 360 361 362 364 364 367 366 365 363 366 367 367 367 366 366 366 366 366 365 361 361 360 358 363 361 361 362 362 364 363
348 351 353 353 354 354 355 358 360 360 360 361 361 361 362 362 364 366 368 365 366 368 369 369 368 368 369 369 369 367 365 360 360 359 359 365 364 362 361 361 363 365 364
347 350 352 353 353 354 352 363 355 358 358 360 359 365 363 362 368 360 367 368 368 370 371 371 372 373 370 364 364 366 362 361 360 359 360 366 362 361 361 360 358 361 363
347 349 352 354 355 352 350 352 353 353 353 355 362 366 363 362 365 361 364 366 366 371 366 367 366 363 364 364 360 361 363 362 358 357 361 364 360 358 360 360 360 360 361
348 349 351 354 357 354 352 352 353 352 352 353 356 364 364 362 366 362 362 368 372 362 363 364 362 363 364 365 364 363 362 359 355 354 363 363 359 358 359 361 362 361 360
348 351 352 355 359 358 358 355 354 352 351 352 357 362 361 360 360 361 366 364 364 365 362 365 366 365 362 361 361 363 361 361 357 355 361 364 362 361 362 363 362 359 359
349 351 353 355 359 360 360 362 356 354 354 354 355 359 365 361 362 367 365 366 368 363 362 360 364 363 362 360 359 359 361 361 357 361 360 361 364 363 363 364 362 360 358
347 350 351 355 358 362 362 360 357 355 353 355 357 361 365 366 368 369 362 362 363 363 364 364 366 365 361 358 359 360 360 358 357 359 361 362 362 363 366 366 362 359 357
347 349 350 350 353 359 360 358 354 354 355 355 356 358 365 367 369 368 369 364 366 362 361 359 362 360 356 356 355 357 359 359 362 362 361 360 364 361 365 365 362 358 355
347 350 351 352 350 353 359 357 357 360 357 355 356 356 371 366 369 367 363 366 366 360 358 360 355 362 357 361 354 355 358 360 359 356 361 358 359 360 362 363 362 358 357
347 351 353 351 354 357 357 358 355 355 357 357 356 356 368 365 366 366 359 363 364 362 364 360 367 363 358 357 353 354 357 360 362 359 359 358 362 362 361 363 360 358 359
348 351 354 353 363 357 354 353 353 351 353 354 355 360 368 364 366 367 360 364 363 361 365 365 362 367 351 363 356 349 354 358 357 358 360 357 362 360 360 366 365 359 355
348 352 355 357 361 359 355 355 354 353 352 353 354 357 361 362 365 365 368 364 364 358 367 363 365 355 350 359 354 349 340 347 353 356 357 356 361 361 358 363 365 365 362
347 351 358 361 362 365 366 357 356 356 354 351 352 353 357 362 366 368 369 367 368 364 361 365 363 365 353 358 364 354 347 337 341 354 356 355 360 357 360 362 364 365 366
346 350 357 361 365 366 370 362 366 354 350 349 352 351 354 365 369 366 369 370 370 361 369 364 362 364 363 354 362 355 363 358 350 342 354 356 358 359 362 360 362 364 368
346 347 352 361 365 369 369 369 360 360 352 351 351 361 367 363 366 365 368 371 369 363 370 369 369 370 362 357 354 354 363 354 361 349 344 347 355 355 357 361 357 361 365
345 345 348 360 366 369 371 370 371 369 362 353 354 349 355 354 360 368 365 371 372 372 371 368 374 376 369 366 358 360 351 350 349 352 345 351 349 352 353 356 358 359 360
Wind_Speed
14 17 14 15 15 15 15 15 14 13 11 10 10 9 9 7 9 9 9 7 6 9 8 7 7 6 7 7 6 5 5 4 4 3 4 5 6 4 4 5 3 6 10
19 19 15 15 15 15 14 14 13 12 10 9 9 9 9 9 9 9 8 8 7 6 8 7 7 8 8 6 6 5 4 4 3 4 8 10 11 7 3 0 3 11 11
20 19 17 14 14 15 14 13 12 11 10 10 9 11 9 10 10 10 9 8 8 7 7 6 5 6 6 6 4 4 4 2 2 7 6 6 12 11 4 3 6 10 10
21 18 18 14 14 14 13 12 11 11 12 12 11 11 11 10 8 8 7 6 5 4 4 3 3 3 2 2 2 1 1 0 3 9 9 14 6 13 7 5 6 7 8
21 19 20 16 15 14 13 12 12 10 10 10 10 10 9 8 6 5 4 3 2 2 2 2 2 2 2 3 3 3 3 4 7 10 7 6 5 11 11 8 8 8 10
19 23 19 16 16 14 12 12 12 11 9 9 8 7 6 5 4 2 1 2 2 3 4 5 4 4 5 5 5 6 6 7 9 11 8 2 9 12 10 9 7 7 8
18 21 18 15 14 13 12 11 10 9 8 8 7 6 4 3 2 3 3 4 4 5 6 6 6 6 6 6 7 7 8 9 11 7 3 4 8 12 11 9 7 9 8
19 19 18 15 14 13 12 11 10 9 7 7 5 3 2 2 4 4 5 6 6 7 8 9 9 8 8 8 9 9 9 11 12 10 6 6 11 13 10 9 9 8 10
17 19 16 16 14 12 11 11 10 9 7 5 4 4 4 6 7 8 8 8 8 8 8 9 10 10 10 11 10 10 10 11 11 6 5 8 15 14 11 9 9 9 10
12 19 17 15 15 13 13 11 10 8 7 6 6 7 9 10 11 12 11 11 8 9 10 9 9 9 9 11 11 12 11 11 11 5 5 7 15 13 11 10 11 11 12
11 11 13 16 13 12 13 12 11 10 10 10 11 12 12 8 8 6 6 5 7 9 11 10 10 10 11 12 13 13 13 8 8 6 3 13 12 9 9 9 8 9 14
14 14 12 12 13 11 7 13 9 12 11 10 4 8 9 4 1 6 3 8 11 12 12 11 13 14 12 7 9 12 9 8 7 5 7 12 9 6 7 7 7 8 12
15 12 12 10 10 12 8 8 5 5 5 6 5 6 3 3 4 4 3 4 6 12 5 10 11 6 12 6 6 10 10 3 3 5 11 11 8 7 7 7 7 8 7
16 14 14 13 9 9 7 5 4 4 4 3 8 7 4 6 4 3 2 3 2 6 2 6 5 5 4 4 1 4 7 5 5 3 10 13 8 6 5 5 6 7 6
15 14 13 13 10 7 4 4 4 4 5 5 4 8 5 4 2 6 1 4 4 3 2 3 3 2 4 5 5 6 4 5 3 2 7 14 10 6 5 5 6 5 6
15 15 14 14 13 11 8 6 4 5 4 4 6 7 5 4 5 3 4 4 4 7 3 4 5 5 3 4 6 7 2 5 6 4 9 8 12 10 8 7 8 6 5
14 14 15 13 15 12 11 9 8 6 7 7 6 3 6 5 6 5 5 4 5 2 2 6 8 3 7 5 4 4 9 4 8 4 11 10 10 12 12 9 8 7 6
13 14 14 13 14 14 11 9 8 8 7 7 7 7 9 6 6 5 2 3 5 3 5 5 6 3 9 5 5 10 11 3 6 5 9 8 11 10 11 13 10 8 6
13 14 13 13 13 14 12 9 9 8 7 7 7 6 9 7 5 6 4 4 5 7 5 3 7 1 5 5 3 7 4 9 10 10 5 2 3 5 7 11 12 10 7
15 14 13 11 11 12 10 9 8 8 8 8 7 7 7 5 5 5 7 3 4 8 3 7 7 7 7 8 9 6 7 6 4 6 4 8 9 3 10 11 8 8 11
16 15 15 13 11 9 10 10 9 9 8 7 8 7 3 6 5 6 8 8 7 7 7 4 3 8 7 5 10 13 7 7 7 5 13 7 11 7 7 7 5 6 7
18 17 16 15 13 12 10 9 9 9 8 8 8 7 9 9 10 5 8 6 4 5 5 2 3 7 7 4 9 3 4 7 5 11 6 2 8 4 6 8 7 4 9
20 20 17 16 15 14 13 10 8 7 6 6 7 6 9 9 10 9 7 7 3 4 2 5 4 5 7 1 5 6 5 3 6 9 6 4 4 4 5 6 4 5 5
21 20 18 17 16 15 14 11 12 9 9 9 8 8 9 12 11 8 8 8 7 8 4 5 4 5 3 6 3 5 5 5 8 3 3 6 5 4 4 5 8 8 7
21 20 20 17 16 15 15 14 10 12 9 8 6 6 7 6 8 10 9 9 8 7 5 3 5 5 3 5 6 3 6 7 3 5 2 7 8 7 7 8 6 5 10
21 20 20 19 16 17 15 17 14 11 12 9 8 7 9 10 11 11 9 9 8 8 7 3 6 7 7 4 6 4 6 6 4 6 5 4 6 3 4 5 5 6 6
Wind_Direction
134 135 136 131 127 124 114 107 105 107 107 105 102 103 103 111 115 114 114 110 101 95 91 81 82 70 82 88 81 77 81 83 91 97 131 127 105 98 117 183 193 143 114
139 142 141 134 131 123 114 114 114 113 116 120 113 107 91 88 96 90 99 99 100 92 89 80 72 67 79 76 74 74 101 111 127 193 192 154 130 116 123 64 355 112 125
137 133 147 138 129 122 124 121 121 123 116 113 99 94 93 100 98 103 102 100 100 98 91 89 80 73 72 75 75 83 94 100 196 242 196 282 135 130 137 129 114 128 135
126 150 141 133 129 130 129 129 132 125 117 113 106 101 102 103 105 99 101 103 105 106 109 112 107 109 109 110 112 91 58 314 264 278 265 185 150 137 152 157 138 141 149
144 148 121 137 135 135 133 136 118 112 103 106 107 107 105 104 103 103 105 114 139 165 186 205 208 204 199 209 207 217 248 264 271 274 296 22 34 140 148 163 167 173 190
152 119 130 136 140 140 141 125 131 125 123 121 117 116 118 116 123 141 182 218 225 229 231 230 225 221 225 222 223 224 235 247 259 249 240 112 121 148 155 178 216 187 183
142 119 135 139 141 144 139 135 130 132 134 132 130 136 133 139 181 206 217 224 234 244 238 238 233 224 227 228 226 226 231 241 258 266 180 156 141 145 152 182 203 179 174
128 140 137 144 147 149 150 147 143 141 144 144 148 156 176 219 236 236 236 234 230 240 249 247 241 233 224 226 228 228 231 237 243 253 184 69 146 141 167 188 201 195 185
138 141 154 161 160 161 162 158 156 156 158 159 176 206 226 236 240 237 236 234 235 241 244 245 245 237 224 227 224 225 228 235 265 246 244 159 148 148 173 205 214 213 204
160 141 154 156 167 179 166 173 173 173 180 186 207 225 239 239 239 234 233 223 235 253 258 254 245 245 231 225 221 222 222 226 239 257 308 117 146 159 176 205 222 223 216
171 152 162 155 169 186 169 168 185 195 201 206 215 218 238 238 225 223 207 169 236 248 251 244 232 232 229 227 218 214 209 222 222 237 144 141 143 164 191 218 238 241 214
176 165 168 173 167 169 197 140 203 181 200 191 196 172 245 168 185 294 258 204 232 228 225 222 223 225 227 247 201 211 222 205 212 188 123 129 131 168 210 226 248 256 212
176 178 177 195 170 176 205 168 198 197 187 173 196 223 265 327 196 236 167 190 213 227 179 215 209 200 249 181 222 194 222 196 229 154 116 127 150 173 204 219 244 241 224
177 189 181 174 173 209 175 197 197 216 167 239 170 186 223 225 145 243 12 284 293 259 10 275 216 23 275 234 278 285 226 246 198 157 129 131 156 189 217 241 255 229 222
176 182 187 158 164 220 205 197 249 220 182 199 178 176 243 289 249 272 3 300 309 273 200 257 286 276 289 336 190 216 231 217 257 251 95 137 153 180 214 231 236 224 228
177 183 189 171 173 194 206 219 224 221 189 242 208 171 197 272 290 293 240 242 252 260 43 338 356 305 311 206 170 230 269 242 194 165 136 146 155 171 191 205 194 206 211
176 190 190 193 178 189 202 197 210 229 206 203 214 171 208 245 212 273 274 250 234 237 231 224 243 300 269 209 212 225 204 266 52 180 150 146 153 168 171 161 163 163 160
191 191 196 189 184 183 196 201 216 210 225 210 214 194 185 216 228 237 244 296 343 247 233 251 233 164 310 242 252 171 271 161 113 177 236 159 167 151 164 159 157 159 157
198 179 200 191 192 182 196 206 214 205 226 234 227 219 144 228 224 246 231 173 231 260 216 253 296 357 216 285 304 211 228 119 227 183 119 183 90 158 153 159 160 166 166
182 180 194 192 198 186 181 214 208 218 219 226 230 240 159 205 236 226 253 204 245 254 58 50 345 355 323 287 265 161 198 187 154 166 86 192 138 189 142 160 168 177 175
181 185 185 193 186 191 197 196 212 213 215 226 229 224 183 223 229 201 265 178 206 267 128 313 281 229 275 242 271 2 190 148 202 163 183 203 132 191 146 139 174 179 176
185 185 188 193 185 202 200 211 211 216 219 217 218 205 206 232 250 263 268 291 220 100 166 201 288 300 258 295 295 269 102 261 192 166 179 182 151 196 181 187 182 165 192
191 189 188 195 190 198 223 205 214 245 246 221 234 225 205 223 245 226 265 267 331 299 143 178 209 269 308 227 319 314 333 81 200 312 120 235 110 223 223 160 184 193 205
197 190 193 193 200 196 208 225 211 213 225 218 224 216 223 196 212 235 226 231 236 262 110 142 202 293 305 296 228 271 333 348 357 82 304 162 181 239 201 272 176 190 168
197 196 192 191 199 213 195 226 208 227 223 235 225 221 210 177 205 241 212 218 223 232 227 187 147 222 222 277 302 210 2 315 139 315 324 200 181 195 192 193 234 184 174
198 199 195 186 195 199 209 199 234 211 233 242 200 213 208 218 191 208 214 201 224 239 238 220 208 226 257 277 287 321 273 276 272 237 256 247 248 266 254 237 218 219 193